When you browse on this site, cookies collect data to enhance your experience and personalize the content and advertising you see.
Visit our Privacy Policy to learn more. By continuing to use the site, you agree to this use of cookies and data.
  • en Suisse
  • Liste des pays
  • À 7 jours
  • Température de l'eau
  • Carte satellitaire
  • Carte météo
  • Widgets météo
  • user-avatar
    Se connecter

    Météo par heure à Klagenfurt

    Ce jour, 25 Mai, Samedi

    Heure Température Précipitation Vent Pression Humidité
    00:00 +9°C° 0 mm 0 m/s 688 mmHg 91%
    01:00 +8°C° 0 mm 0 m/s 688 mmHg 92%
    02:00 +8°C° 0 mm 0 m/s 688 mmHg 92%
    03:00 +9°C° 0 mm 1 m/s 688 mmHg 93%
    04:00 +9°C° 0 mm 1 m/s 688 mmHg 93%
    05:00 +9°C° 0 mm 0 m/s 688 mmHg 87%
    06:00 +11°C° 0 mm 0 m/s 688 mmHg 81%
    07:00 +13°C° 0 mm 0 m/s 689 mmHg 75%
    08:00 +16°C° 0 mm 0 m/s 689 mmHg 67%
    09:00 +20°C° 0 mm 1 m/s 690 mmHg 60%
    10:00 +22°C° 0 mm 1 m/s 690 mmHg 52%
    11:00 +21°C° 0.5 mm 1 m/s 690 mmHg 56%
    12:00 +20°C° 0.5 mm 2 m/s 690 mmHg 60%
    13:00 +20°C° 0.5 mm 2 m/s 690 mmHg 63%
    14:00 +20°C° 0.6 mm 2 m/s 689 mmHg 65%
    15:00 +20°C° 0.6 mm 2 m/s 689 mmHg 66%
    16:00 +19°C° 0.6 mm 2 m/s 689 mmHg 67%
    17:00 +18°C° 0.2 mm 2 m/s 689 mmHg 73%
    18:00 +18°C° 0.2 mm 1 m/s 689 mmHg 79%
    19:00 +15°C° 0.2 mm 1 m/s 688 mmHg 85%
    20:00 +14°C° 0.1 mm 1 m/s 688 mmHg 88%
    21:00 +13°C° 0.1 mm 1 m/s 688 mmHg 92%
    22:00 +11°C° 0.1 mm 1 m/s 689 mmHg 96%
    23:00 +11°C° 0 mm 1 m/s 688 mmHg 96%

    Demain, 26 Mai, Dimanche

    Heure Température Précipitation Vent Pression Humidité
    00:00 +11°C° 0 mm 1 m/s 688 mmHg 96%
    01:00 +10°C° 0 mm 1 m/s 688 mmHg 97%
    02:00 +10°C° 0 mm 1 m/s 688 mmHg 96%
    03:00 +10°C° 0 mm 1 m/s 688 mmHg 96%
    04:00 +10°C° 0 mm 1 m/s 688 mmHg 96%
    05:00 +11°C° 0 mm 1 m/s 689 mmHg 91%
    06:00 +12°C° 0 mm 0 m/s 689 mmHg 87%
    07:00 +13°C° 0 mm 0 m/s 689 mmHg 82%
    08:00 +16°C° 0 mm 0 m/s 690 mmHg 71%
    09:00 +18°C° 0 mm 0 m/s 690 mmHg 61%
    10:00 +21°C° 0 mm 0 m/s 691 mmHg 50%
    11:00 +22°C° 0 mm 0 m/s 691 mmHg 47%
    12:00 +24°C° 0 mm 1 m/s 691 mmHg 45%
    13:00 +24°C° 0 mm 1 m/s 690 mmHg 43%
    14:00 +23°C° 0.1 mm 1 m/s 690 mmHg 47%
    15:00 +21°C° 0.1 mm 2 m/s 690 mmHg 51%
    16:00 +20°C° 0.1 mm 2 m/s 689 mmHg 56%
    17:00 +19°C° 0.1 mm 2 m/s 689 mmHg 65%
    18:00 +17°C° 0.1 mm 2 m/s 689 mmHg 74%
    19:00 +16°C° 0.1 mm 1 m/s 689 mmHg 84%
    20:00 +15°C° 0.1 mm 1 m/s 689 mmHg 87%
    21:00 +14°C° 0.1 mm 1 m/s 689 mmHg 90%
    22:00 +13°C° 0.1 mm 1 m/s 689 mmHg 93%
    23:00 +13°C° 0.1 mm 1 m/s 688 mmHg 93%

    Après-demain, 27 Mai, Lundi

    Heure Température Précipitation Vent Pression Humidité
    00:00 +12°C° 0.1 mm 1 m/s 688 mmHg 93%
    01:00 +12°C° 0.1 mm 1 m/s 688 mmHg 93%
    02:00 +12°C° 0.6 mm 1 m/s 688 mmHg 93%
    03:00 +12°C° 0.6 mm 1 m/s 687 mmHg 93%
    04:00 +12°C° 0.6 mm 1 m/s 687 mmHg 94%
    05:00 +11°C° 1.1 mm 0 m/s 687 mmHg 93%
    06:00 +11°C° 1.1 mm 0 m/s 687 mmHg 93%
    07:00 +12°C° 1.1 mm 0 m/s 687 mmHg 93%
    08:00 +12°C° 0.9 mm 0 m/s 687 mmHg 91%
    09:00 +13°C° 0.9 mm 0 m/s 687 mmHg 89%
    10:00 +13°C° 0.9 mm 0 m/s 687 mmHg 87%
    11:00 +16°C° 0 mm 0 m/s 688 mmHg 77%
    12:00 +18°C° 0 mm 0 m/s 688 mmHg 67%
    13:00 +23°C° 0 mm 1 m/s 688 mmHg 57%
    14:00 +21°C° 0.8 mm 1 m/s 687 mmHg 67%
    15:00 +19°C° 0.8 mm 1 m/s 687 mmHg 78%
    16:00 +16°C° 0.8 mm 1 m/s 686 mmHg 89%
    17:00 +15°C° 1.3 mm 1 m/s 686 mmHg 91%
    18:00 +15°C° 1.3 mm 1 m/s 685 mmHg 93%
    19:00 +13°C° 1.3 mm 0 m/s 685 mmHg 96%
    20:00 +13°C° 0.5 mm 0 m/s 685 mmHg 96%
    21:00 +12°C° 0.5 mm 0 m/s 685 mmHg 97%
    22:00 +12°C° 0.5 mm 0 m/s 685 mmHg 97%
    23:00 +12°C° 0 mm 0 m/s 685 mmHg 97%

    28 Mai, Mardi

    Heure Température Précipitation Vent Pression Humidité
    00:00 +11°C° 0 mm 0 m/s 684 mmHg 98%
    01:00 +11°C° 0 mm 0 m/s 684 mmHg 98%
    02:00 +11°C° 0 mm 0 m/s 684 mmHg 98%
    03:00 +10°C° 0 mm 0 m/s 683 mmHg 98%
    04:00 +10°C° 0 mm 0 m/s 683 mmHg 98%
    05:00 +11°C° 0.1 mm 0 m/s 683 mmHg 96%
    06:00 +11°C° 0.1 mm 0 m/s 683 mmHg 95%
    07:00 +12°C° 0.1 mm 0 m/s 683 mmHg 94%
    08:00 +13°C° 0.3 mm 0 m/s 683 mmHg 90%
    09:00 +14°C° 0.3 mm 0 m/s 683 mmHg 86%
    10:00 +15°C° 0.3 mm 0 m/s 683 mmHg 83%
    11:00 +16°C° 1.1 mm 0 m/s 683 mmHg 79%
    12:00 +19°C° 1.1 mm 1 m/s 683 mmHg 75%
    13:00 +21°C° 1.1 mm 1 m/s 683 mmHg 72%
    14:00 +20°C° 1.9 mm 1 m/s 683 mmHg 77%
    15:00 +19°C° 1.9 mm 1 m/s 683 mmHg 82%
    16:00 +19°C° 1.9 mm 1 m/s 682 mmHg 86%
    17:00 +18°C° 1.4 mm 1 m/s 683 mmHg 89%
    18:00 +16°C° 1.4 mm 1 m/s 683 mmHg 91%
    19:00 +15°C° 1.4 mm 1 m/s 683 mmHg 93%
    20:00 +14°C° 0.9 mm 1 m/s 683 mmHg 94%
    21:00 +13°C° 0.9 mm 1 m/s 683 mmHg 95%
    22:00 +12°C° 0.9 mm 1 m/s 684 mmHg 96%
    23:00 +12°C° 0.6 mm 1 m/s 684 mmHg 96%

    29 Mai, Mercredi

    Heure Température Précipitation Vent Pression Humidité
    00:00 +12°C° 0.6 mm 1 m/s 684 mmHg 96%
    01:00 +11°C° 0.6 mm 1 m/s 684 mmHg 96%
    02:00 +11°C° 1.9 mm 1 m/s 684 mmHg 97%
    03:00 +11°C° 1.9 mm 1 m/s 684 mmHg 97%
    04:00 +10°C° 1.9 mm 1 m/s 684 mmHg 97%
    05:00 +10°C° 4.2 mm 1 m/s 684 mmHg 97%
    06:00 +10°C° 4.2 mm 1 m/s 685 mmHg 97%
    07:00 +10°C° 4.2 mm 1 m/s 685 mmHg 96%
    08:00 +10°C° 0.7 mm 1 m/s 686 mmHg 94%
    09:00 +11°C° 0.7 mm 1 m/s 686 mmHg 92%
    10:00 +12°C° 0.7 mm 1 m/s 687 mmHg 90%
    11:00 +12°C° 1 mm 1 m/s 687 mmHg 91%
    12:00 +12°C° 1 mm 1 m/s 687 mmHg 92%
    13:00 +12°C° 1 mm 1 m/s 688 mmHg 93%
    14:00 +12°C° 0.8 mm 1 m/s 688 mmHg 93%
    15:00 +12°C° 0.8 mm 1 m/s 688 mmHg 92%
    16:00 +12°C° 0.8 mm 1 m/s 688 mmHg 92%
    17:00 +11°C° 0.6 mm 1 m/s 689 mmHg 92%
    18:00 +11°C° 0.6 mm 1 m/s 689 mmHg 93%
    19:00 +11°C° 0.6 mm 1 m/s 689 mmHg 94%
    20:00 +10°C° 0.3 mm 1 m/s 690 mmHg 94%
    21:00 +10°C° 0.3 mm 1 m/s 691 mmHg 95%
    22:00 +9°C° 0.3 mm 1 m/s 691 mmHg 95%
    23:00 +9°C° 0.3 mm 1 m/s 691 mmHg 95%

    30 Mai, Jeudi

    Heure Température Précipitation Vent Pression Humidité
    00:00 +9°C° 0.3 mm 1 m/s 691 mmHg 95%
    01:00 +8°C° 0.3 mm 1 m/s 691 mmHg 95%
    02:00 +8°C° 0.2 mm 1 m/s 691 mmHg 94%
    03:00 +8°C° 0.2 mm 1 m/s 692 mmHg 94%
    04:00 +8°C° 0.2 mm 1 m/s 692 mmHg 94%
    05:00 +8°C° 0.2 mm 1 m/s 692 mmHg 91%
    06:00 +9°C° 0.2 mm 1 m/s 692 mmHg 88%
    07:00 +10°C° 0.2 mm 1 m/s 692 mmHg 85%
    08:00 +11°C° 0.2 mm 1 m/s 692 mmHg 80%
    09:00 +12°C° 0.2 mm 1 m/s 693 mmHg 74%
    10:00 +14°C° 0.2 mm 1 m/s 693 mmHg 68%
    11:00 +15°C° 0.2 mm 1 m/s 693 mmHg 66%
    12:00 +16°C° 0.2 mm 1 m/s 692 mmHg 63%
    13:00 +16°C° 0.2 mm 0 m/s 692 mmHg 60%
    14:00 +18°C° 0.3 mm 1 m/s 692 mmHg 63%
    15:00 +16°C° 0.3 mm 1 m/s 692 mmHg 66%
    16:00 +16°C° 0.3 mm 1 m/s 691 mmHg 69%
    17:00 +15°C° 0.7 mm 1 m/s 691 mmHg 77%
    18:00 +13°C° 0.7 mm 1 m/s 691 mmHg 84%
    19:00 +11°C° 0.7 mm 0 m/s 691 mmHg 91%
    20:00 +10°C° 0.4 mm 0 m/s 691 mmHg 92%
    21:00 +9°C° 0.4 mm 0 m/s 691 mmHg 94%
    22:00 +8°C° 0.4 mm 0 m/s 691 mmHg 95%
    23:00 +8°C° 0.2 mm 0 m/s 691 mmHg 96%
    Voir plus